FW0864 Weather Reports


Display with metric or nautical units.
time (UTC)temp
F
wind
direction
speed
MPH
gust
MPH
rain 1hr
in
rain 24hr
in
rain mn
in
humidity
%
barometer
mb
20260504141052 56 332 1.0 6.0 0.00 0.00 0.00 76 1012.0
20260504140552 56 64 2.0 5.0 0.00 0.00 0.00 76 1012.0
20260504140105 56 20 2.0 4.0 0.00 0.00 0.00 76 1012.0
20260504130550 56 290 1.0 4.0 0.00 0.00 0.00 76 1011.8
20260504110540 56 310 2.0 5.0 0.00 0.00 0.00 76 1011.6
20260504100535 56 264 3.0 7.0 0.00 0.00 0.00 75 1011.1
20260504081527 56 295 5.0 11.0 0.00 0.00 0.00 73 1011.0
20260504081026 56 308 4.0 9.0 0.00 0.00 0.00 73 1011.0
20260504080525 56 253 4.0 9.0 0.00 0.00 0.00 73 1011.0
20260504050504 61 276 4.0 15.0 0.00 0.00 0.00 64 1010.0
20260504050002 62 316 5.0 12.0 0.00 0.00 0.00 63 1010.0
20260504045502 62 293 5.0 16.0 0.00 0.00 0.00 63 1009.9
20260504045004 62 323 5.0 14.0 0.00 0.00 0.00 62 1009.9
20260504044504 62 304 7.0 14.0 0.00 0.00 0.00 62 1009.9
20260504044002 62 296 6.0 14.0 0.00 0.00 0.00 62 1009.9
20260504043503 63 290 7.0 17.0 0.00 0.00 0.00 62 1009.9
20260504043004 63 300 7.0 17.0 0.00 0.00 0.00 62 1009.8
20260504042501 63 245 3.0 15.0 0.00 0.00 0.00 62 1009.8
20260504042100 63 317 7.0 15.0 0.00 0.00 0.00 61 1009.7
20260504041600 63 330 6.0 13.0 0.00 0.00 0.00 61 1009.4
20260504041500 63 346 6.0 13.0 0.00 0.00 0.00 61 1009.4
20260504041000 63 280 4.0 13.0 0.00 0.00 0.00 62 1009.4
20260504040601 64 295 3.0 13.0 0.00 0.00 0.00 62 1009.4
20260504040107 64 320 4.0 11.0 0.00 0.00 0.00 62 1009.3
20260504035600 64 240 2.0 8.0 0.00 0.00 0.00 62 1009.2
20260504035059 64 341 2.0 8.0 0.00 0.00 0.00 61 1009.2
20260504034605 63 262 4.0 8.0 0.00 0.00 0.00 59 1009.0
20260504034059 63 299 3.0 13.0 0.00 0.00 0.00 56 1009.0
20260504033559 63 270 5.0 13.0 0.00 0.00 0.00 55 1008.7
20260504033115 64 249 6.0 12.0 0.00 0.00 0.00 55 1008.7
20260504032601 64 247 6.0 12.0 0.00 0.00 0.00 54 1008.6
20260504032059 64 259 8.0 12.0 0.00 0.00 0.00 54 1008.5
20260504031559 65 239 4.0 15.0 0.00 0.00 0.00 54 1008.5
20260504031059 65 255 8.0 16.0 0.00 0.00 0.00 54 1008.4
20260504030558 65 271 8.0 16.0 0.00 0.00 0.00 54 1008.4
20260504030057 66 274 8.0 13.0 0.00 0.00 0.00 53 1008.3
20260504025557 67 235 6.0 15.0 0.00 0.00 0.00 53 1008.2
20260504025057 67 283 8.0 12.0 0.00 0.00 0.00 54 1008.1
20260504024605 68 264 7.0 14.0 0.00 0.00 0.00 55 1008.0
20260504024056 69 284 4.0 14.0 0.00 0.00 0.00 57 1007.9
20260504023557 69 314 6.0 10.0 0.00 0.00 0.00 57 1007.8
20260504023057 69 285 3.0 10.0 0.00 0.00 0.00 57 1007.7
20260504022558 69 316 4.0 10.0 0.00 0.00 0.00 56 1007.7
20260504022059 69 339 6.0 12.0 0.00 0.00 0.00 56 1007.7
20260504021556 70 4 5.0 12.0 0.00 0.00 0.00 55 1007.6
20260504021056 70 254 4.0 9.0 0.00 0.00 0.00 55 1007.4
20260504020556 71 334 3.0 9.0 0.00 0.00 0.00 54 1007.4
20260504020055 71 319 4.0 11.0 0.00 0.00 0.00 53 1007.4
20260504015556 71 303 6.0 11.0 0.00 0.00 0.00 52 1007.3
20260504015058 71 267 6.0 14.0 0.00 0.00 0.00 51 1007.3
20260504014556 71 274 7.0 14.0 0.00 0.00 0.00 51 1007.2
20260504014058 71 283 8.0 15.0 0.00 0.00 0.00 51 1007.2
20260504013555 71 232 11.0 15.0 0.00 0.00 0.00 50 1007.1
20260504013057 71 256 6.0 16.0 0.00 0.00 0.00 50 1007.2
20260504012555 71 262 9.0 17.0 0.00 0.00 0.00 49 1007.2
20260504012055 71 243 6.0 16.0 0.00 0.00 0.00 49 1007.2
20260504011555 72 285 11.0 16.0 0.00 0.00 0.00 48 1007.2
20260504011055 72 261 9.0 19.0 0.00 0.00 0.00 48 1007.2
20260504010554 72 261 10.0 19.0 0.00 0.00 0.00 47 1007.2
20260504010058 72 284 7.0 18.0 0.00 0.00 0.00 47 1007.1
20260504005554 73 232 7.0 19.0 0.00 0.00 0.00 47 1007.2
20260504005057 73 260 11.0 19.0 0.00 0.00 0.00 47 1007.2
20260504004554 73 252 5.0 14.0 0.00 0.00 0.00 49 1007.2
20260504004053 73 296 7.0 15.0 0.00 0.00 0.00 49 1007.1
20260504003557 74 293 8.0 15.0 0.00 0.00 0.00 48 1007.2
20260504003053 73 260 4.0 9.0 0.00 0.00 0.00 48 1007.1
20260504002553 73 349 4.0 9.0 0.00 0.00 0.00 47 1007.1
20260504002053 74 303 4.0 9.0 0.00 0.00 0.00 47 1007.1
20260504001610 74 336 4.0 9.0 0.00 0.00 0.00 48 1007.1
20260504001053 73 235 2.0 8.0 0.00 0.00 0.00 49 1007.1
20260504000553 72 342 3.0 13.0 0.00 0.00 0.00 50 1007.0
20260504000052 72 316 6.0 13.0 0.00 0.00 0.00 50 1007.0
20260503235552 72 272 7.0 12.0 0.00 0.00 0.00 50 1007.0
20260503235052 73 255 4.0 10.0 0.00 0.00 0.00 49 1007.0
20260503234553 73 338 4.0 13.0 0.00 0.00 0.00 49 1006.9
20260503234052 74 268 4.0 13.0 0.00 0.00 0.00 49 1007.0
20260503233552 74 272 7.0 10.0 0.00 0.00 0.00 47 1007.1
20260503233052 74 304 2.0 9.0 0.00 0.00 0.00 48 1007.2
20260503232556 73 343 2.0 11.0 0.00 0.00 0.00 49 1007.2
20260503232051 73 345 5.0 13.0 0.00 0.00 0.00 48 1007.2
20260503231554 74 279 7.0 13.0 0.00 0.00 0.00 49 1007.2
20260503231052 73 359 4.0 10.0 0.00 0.00 0.00 50 1007.3
20260503230552 73 301 5.0 11.0 0.00 0.00 0.00 49 1007.3
20260503230052 73 9 5.0 15.0 0.00 0.00 0.00 50 1007.3
20260503225551 73 297 7.0 11.0 0.00 0.00 0.00 50 1007.3
20260503225052 74 308 5.0 13.0 0.00 0.00 0.00 49 1007.4
20260503224550 74 9 3.0 13.0 0.00 0.00 0.00 47 1007.4
20260503224051 73 36 1.0 11.0 0.00 0.00 0.00 49 1007.5
20260503223551 73 343 2.0 15.0 0.00 0.00 0.00 50 1007.5
20260503223051 74 10 4.0 15.0 0.00 0.00 0.00 47 1007.5
20260503222554 74 246 8.0 15.0 0.00 0.00 0.00 46 1007.5
20260503222051 75 256 5.0 11.0 0.00 0.00 0.00 44 1007.6
20260503221550 74 272 8.0 11.0 0.00 0.00 0.00 45 1007.7
20260503221052 74 252 5.0 10.0 0.00 0.00 0.00 46 1007.7
20260503220549 73 304 6.0 14.0 0.00 0.00 0.00 46 1007.7
20260503220105 73 266 6.0 14.0 0.00 0.00 0.00 47 1007.7
20260503215548 73 259 4.0 12.0 0.00 0.00 0.00 46 1007.7
20260503215049 73 237 5.0 11.0 0.00 0.00 0.00 47 1007.9
20260503214549 73 301 6.0 13.0 0.00 0.00 0.00 47 1007.9
20260503214050 73 332 7.0 13.0 0.00 0.00 0.00 46 1007.9
20260503213551 73 168 3.0 14.0 0.00 0.00 0.00 46 1007.9
20260503213050 74 264 6.0 14.0 0.00 0.00 0.00 45 1008.0
20260503212549 74 260 6.0 15.0 0.00 0.00 0.00 45 1007.9
20260503212048 73 262 6.0 15.0 0.00 0.00 0.00 46 1007.9
20260503211601 73 277 7.0 17.0 0.00 0.00 0.00 45 1008.1
20260503211052 73 235 10.0 17.0 0.00 0.00 0.00 46 1008.1
20260503210548 74 262 5.0 13.0 0.00 0.00 0.00 45 1008.1
20260503210054 74 262 7.0 13.0 0.00 0.00 0.00 45 1008.1
20260503205547 74 87 3.0 10.0 0.00 0.00 0.00 44 1008.1
20260503205047 74 219 4.0 10.0 0.00 0.00 0.00 46 1008.2
20260503204552 73 233 4.0 15.0 0.00 0.00 0.00 48 1008.2
20260503204044 73 274 8.0 15.0 0.00 0.00 0.00 47 1008.2
20260503203544 72 312 5.0 13.0 0.00 0.00 0.00 48 1008.2
20260503203044 72 222 3.0 13.0 0.00 0.00 0.00 49 1008.3
20260503202544 72 212 5.0 12.0 0.00 0.00 0.00 48 1008.3
20260503202047 72 257 6.0 12.0 0.00 0.00 0.00 50 1008.3
20260503201544 72 147 3.0 9.0 0.00 0.00 0.00 51 1008.3
20260503201043 72 301 3.0 11.0 0.00 0.00 0.00 49 1008.5
20260503200547 73 270 6.0 11.0 0.00 0.00 0.00 50 1008.5
20260503200042 73 343 3.0 8.0 0.00 0.00 0.00 50 1008.4
20260503195541 70 41 1.0 12.0 0.00 0.00 0.00 54 1008.5
20260503195040 70 4 6.0 12.0 0.00 0.00 0.00 52 1008.7
20260503194539 70 327 0.0 11.0 0.00 0.00 0.00 53 1008.6
20260503194040 70 285 2.0 10.0 0.00 0.00 0.00 55 1008.7
20260503193538 69 258 2.0 12.0 0.00 0.00 0.00 53 1008.8
20260503193045 69 245 5.0 12.0 0.00 0.00 0.00 53 1008.9
20260503192537 69 354 6.0 11.0 0.00 0.00 0.00 53 1008.9
20260503192041 69 307 1.0 6.0 0.00 0.00 0.00 55 1009.0
20260503191538 68 295 3.0 10.0 0.00 0.00 0.00 55 1009.0
20260503191037 69 70 5.0 10.0 0.00 0.00 0.00 54 1009.1
20260503190537 69 257 2.0 9.0 0.00 0.00 0.00 54 1009.1
20260503190037 69 4 2.0 9.0 0.00 0.00 0.00 55 1009.1
20260503185535 69 354 1.0 7.0 0.00 0.00 0.00 56 1009.2
20260503185036 68 255 3.0 7.0 0.00 0.00 0.00 56 1009.3
20260503184533 68 260 2.0 9.0 0.00 0.00 0.00 56 1009.3
20260503184032 67 251 3.0 8.0 0.00 0.00 0.00 57 1009.3
20260503183532 67 301 3.0 8.0 0.00 0.00 0.00 58 1009.4
20260503183037 66 43 2.0 12.0 0.00 0.00 0.00 59 1009.5
20260503182529 66 299 6.0 12.0 0.00 0.00 0.00 59 1009.5
20260503182029 66 249 4.0 9.0 0.00 0.00 0.00 59 1009.5
20260503181547 65 264 4.0 9.0 0.00 0.00 0.00 61 1009.4
20260503181028 65 251 5.0 9.0 0.00 0.00 0.00 60 1009.6
20260503180530 65 291 3.0 8.0 0.00 0.00 0.00 60 1009.6
20260503180025 65 270 3.0 13.0 0.00 0.00 0.00 62 1009.6
20260503175523 64 285 4.0 13.0 0.00 0.00 0.00 62 1009.6
20260503175023 64 337 4.0 9.0 0.00 0.00 0.00 62 1009.6
20260503174522 64 328 3.0 10.0 0.00 0.00 0.00 64 1009.6
20260503174022 64 289 4.0 10.0 0.00 0.00 0.00 63 1009.6
20260503173624 64 251 4.0 10.0 0.00 0.00 0.00 63 1009.6
20260503173039 63 222 5.0 10.0 0.00 0.00 0.00 64 1009.5
20260503172518 63 324 2.0 10.0 0.00 0.00 0.00 66 1009.4
20260503172022 62 264 4.0 10.0 0.00 0.00 0.00 65 1009.3
20260503171518 62 317 4.0 8.0 0.00 0.00 0.00 65 1009.4
20260503171016 62 270 2.0 8.0 0.00 0.00 0.00 68 1009.5
20260503170519 62 345 2.0 8.0 0.00 0.00 0.00 68 1009.4
20260503150552 56 10 3.0 11.0 0.00 0.00 0.00 83 1008.9